This is the latest recevied weather packets stored in our database for station/object SP6YY-15. If no packets are shown the sender has not sent any weather packets the latest 1 day(s).
| Time | Temp. | Humidity | Pressure | Rain* | Wind** | Luminosity | Snow |
|---|---|---|---|---|---|---|---|
| 1778004576 | 45° C | 10% | 990.9 hPa | - | - | - | - |
| 1778003975 | 43.89° C | 11% | 989.3 hPa | - | - | - | - |
| 1778003375 | 39.44° C | 13% | 989.4 hPa | - | - | - | - |
| 1778003075 | 40° C | 13% | 989.3 hPa | - | - | - | - |
| 1778002775 | 40° C | 13% | 989.1 hPa | - | - | - | - |
| 1778002475 | 40.56° C | 13% | 989.1 hPa | - | - | - | - |
| 1778002175 | 40.56° C | 13% | 989 hPa | - | - | - | - |
| 1778001875 | 40.56° C | 13% | 989.1 hPa | - | - | - | - |
| 1778001575 | 41.11° C | 13% | 989 hPa | - | - | - | - |
| 1778001275 | 41.11° C | 13% | 989 hPa | - | - | - | - |
| 1778000975 | 41.67° C | 12% | 989 hPa | - | - | - | - |
| 1778000675 | 41.67° C | 12% | 988.9 hPa | - | - | - | - |
| 1778000375 | 42.22° C | 12% | 988.8 hPa | - | - | - | - |
| 1778000075 | 42.78° C | 12% | 988.7 hPa | - | - | - | - |
| 1777999775 | 42.78° C | 12% | 988.7 hPa | - | - | - | - |
| 1777999475 | 43.33° C | 11% | 988.8 hPa | - | - | - | - |
| 1777999175 | 43.89° C | 11% | 988.6 hPa | - | - | - | - |
| 1777998875 | 45° C | 11% | 988.7 hPa | - | - | - | - |
| 1777998275 | 46.67° C | 10% | 988.6 hPa | - | - | - | - |
| 1777997975 | 48.33° C | 9% | 988.7 hPa | - | - | - | - |
| 1777997675 | 51.11° C | 9% | 989.1 hPa | - | - | - | - |
| 1777996770 | 54.44° C | 9% | 990.4 hPa | - | - | - | - |
| 1777996470 | 54.44° C | 10% | 990.6 hPa | - | - | - | - |
| 1777996168 | 53.89° C | 10% | 990.9 hPa | - | - | - | - |
| 1777978573 | 45.56° C | 22% | 993.1 hPa | - | - | - | - |
* Rain since midnight (hover to see other rain measurements)
** Current wind speed in m/s (hover to see current wind gust speed)